Sant Hilari Sacalm-Els Cortals (La Selva)





Hora UTC 09:45
Temperatura 6.7 ºC
Humitat 93.0 %
Pressió 997.7 hPa
Pluja 0.0 mm
Velocitat vent 12.9 km/h
Direcció vent WSW

Dades diàries 2022-12-10



Hora UTC (hivern +1h; estiu +2h)
Temperatura (ºC) Humitat (%) Pressió (hPa) Velocitat vent (km/h) Precipitació (mm)
Hora UTC Aire Humitat Pressió Vel. Dir. Vel. Max Dir. Intent. màx 5 min.
00:05 7.0 93.0 994.9 0.0 NE 0.0 0.0
00:10 7.0 93.0 995.0 0.0 NE 0.0 0.0
00:15 7.0 93.0 994.9 0.0 NE 0.0 0.0
00:20 7.0 93.0 994.9 0.0 NE 0.0 0.0
00:25 7.0 93.0 994.9 0.0 NE 0.0 0.0
00:30 7.0 93.0 994.9 0.0 NE 0.0 0.0
00:35 7.0 93.0 994.8 0.0 NE 0.0 0.0
00:40 7.0 93.0 994.8 0.0 NE 0.0 0.0
00:45 7.0 93.0 994.8 0.0 NE 0.0 0.0
00:50 6.9 93.0 994.6 0.0 NE 0.0 0.0
00:55 6.9 93.0 994.7 0.0 NE 0.0 0.0
01:00 6.9 93.0 994.8 0.0 NE 0.0 0.0
01:05 6.8 93.0 994.7 0.0 NE 0.0 0.0
01:10 6.8 93.0 994.8 0.0 NE 0.0 0.0
01:15 6.8 93.0 994.8 0.0 NE 0.0 0.0
01:20 6.7 93.0 994.8 0.0 NE 0.0 0.0
01:25 6.7 93.0 994.7 0.0 NE 0.0 0.0
01:30 6.7 93.0 994.8 0.0 NE 0.0 0.0
01:35 6.6 93.0 994.9 0.0 NE 0.0 0.0
01:40 6.6 93.0 994.8 0.0 NE 0.0 0.0
01:45 6.7 93.0 994.9 0.0 NE 0.0 0.0
01:50 6.7 93.0 994.9 0.0 NE 0.0 0.0
01:55 6.7 93.0 994.8 0.0 NE 0.0 0.0
02:00 6.7 93.0 994.9 0.0 NE 0.0 0.0
02:05 6.7 93.0 994.9 0.0 NE 0.0 0.0
02:10 6.7 93.0 995.1 0.0 NE 0.0 0.0
02:15 6.7 93.0 995.1 0.0 NE 0.0 0.0
02:20 6.7 93.0 995.2 0.0 NE 0.0 0.0
02:25 6.7 93.0 995.3 0.0 NE 0.0 0.0
02:30 6.8 93.0 995.2 0.0 NE 0.0 0.0
02:35 6.8 93.0 995.3 0.0 NW 6.4 0.0
02:40 6.9 93.0 995.3 0.0 WSW 6.4 0.0
02:45 6.9 93.0 995.3 0.0 WSW 0.0 0.0
02:50 6.9 93.0 995.3 0.0 WSW 0.0 0.0
02:55 6.9 93.0 995.4 0.0 WSW 0.0 0.0
03:00 6.9 93.0 995.4 0.0 WSW 0.0 0.0
03:05 6.9 93.0 995.4 0.0 WSW 0.0 0.0
03:10 6.9 93.0 995.4 0.0 WSW 0.0 0.0
03:15 6.8 93.0 995.4 0.0 WSW 0.0 0.0
03:20 6.8 93.0 995.3 0.0 WSW 0.0 0.0
03:25 6.8 93.0 995.4 0.0 WSW 0.0 0.0
03:30 6.8 93.0 995.3 0.0 WSW 0.0 0.0
03:35 6.8 93.0 995.3 8.0 NNE 8.0 0.0
03:40 6.7 93.0 995.2 0.0 N 8.0 0.0
03:45 6.7 93.0 995.2 0.0 N 6.4 0.0
03:50 6.7 93.0 995.2 0.0 N 0.0 0.0
03:55 6.7 93.0 995.1 0.0 N 8.0 0.0
04:00 6.7 93.0 995.1 0.0 N 8.0 0.0
04:05 6.7 93.0 995.2 0.0 N 3.2 0.0
04:10 6.7 93.0 995.4 0.0 N 3.2 0.0
04:15 6.6 93.0 995.4 0.0 N 0.0 0.0
04:20 6.6 93.0 995.4 0.0 N 0.0 0.0
04:25 6.6 93.0 995.4 0.0 N 0.0 0.0
04:30 6.5 93.0 995.4 0.0 N 0.0 0.0
04:35 6.4 93.0 995.3 0.0 N 0.0 0.0
04:40 6.4 93.0 995.4 0.0 N 0.0 0.0
04:45 6.3 93.0 995.5 6.4 SW 8.0 0.0
04:50 6.3 93.0 995.4 6.4 WSW 11.3 0.0
04:55 6.3 93.0 995.4 3.2 WSW 11.3 0.0
05:00 6.3 93.0 995.4 0.0 WSW 8.0 0.0
05:05 6.2 93.0 995.3 0.0 WSW 8.0 0.0
05:10 6.1 93.0 995.2 0.0 WSW 0.0 0.0
05:15 6.1 93.0 995.2 0.0 WSW 3.2 0.0
05:20 6.1 93.0 995.4 6.4 WSW 8.0 0.0
05:20 6.1 93.0 995.4 6.4 WSW 9.7 0.0
05:25 6.2 93.0 995.3 8.0 WSW 9.7 0.0
05:30 6.3 93.0 995.3 0.0 WSW 9.7 0.0
05:35 6.3 93.0 995.4 0.0 WSW 11.3 0.0
05:40 6.3 93.0 995.4 0.0 WSW 11.3 0.0
05:45 6.3 93.0 995.4 1.6 WSW 8.0 0.0
05:50 6.3 93.0 995.4 1.6 WSW 8.0 0.0
05:55 6.3 93.0 995.5 0.0 WSW 8.0 0.0
06:00 6.3 93.0 995.5 0.0 WSW 0.0 0.0
06:05 6.3 93.0 995.5 3.2 WSW 6.4 0.0
06:15 6.3 93.0 995.6 1.6 WSW 9.7 0.0
06:20 6.3 93.0 995.7 4.8 WNW 9.7 0.0
06:25 6.4 93.0 995.6 1.6 WNW 14.5 0.0
06:30 6.4 93.0 995.7 6.4 NW 16.1 0.0
06:35 6.4 93.0 995.8 1.6 NW 19.3 0.0
06:40 6.4 93.0 995.8 3.2 NW 19.3 0.0
06:45 6.4 93.0 995.8 1.6 W 19.3 0.0
06:50 6.4 93.0 995.9 8.0 WNW 19.3 0.0
06:55 6.6 93.0 996.0 6.4 W 19.3 0.0
07:00 6.6 93.0 996.1 3.2 SW 19.3 0.0
07:05 6.7 93.0 996.1 0.0 NW 19.3 0.0
07:10 6.7 93.0 996.1 1.6 NW 22.5 0.0
07:15 6.7 93.0 996.2 6.4 NW 22.5 0.0
07:20 6.7 93.0 996.2 11.3 WNW 22.5 0.0
07:25 6.7 93.0 996.1 3.2 NW 22.5 0.0
07:30 6.7 93.0 996.2 0.0 W 22.5 0.0
07:35 6.6 93.0 996.5 8.0 W 22.5 0.0
07:40 6.6 93.0 996.5 16.1 WNW 22.5 0.0
07:45 6.7 93.0 996.6 11.3 WSW 22.5 0.0
07:50 6.7 93.0 996.7 1.6 SW 22.5 0.0
07:55 6.7 93.0 996.7 4.8 SW 22.5 0.0
08:00 6.7 93.0 996.8 11.3 WSW 22.5 0.0
08:05 6.7 93.0 996.7 8.0 NW 22.5 0.0
08:10 6.7 93.0 996.8 8.0 SW 22.5 0.0
08:15 6.7 93.0 996.9 11.3 WSW 22.5 0.0
08:20 6.7 93.0 996.9 6.4 SW 24.1 0.0
08:25 6.7 93.0 996.9 8.0 WSW 24.1 0.0
08:30 6.8 93.0 997.0 6.4 SW 24.1 0.0
08:35 6.8 93.0 997.1 8.0 SW 24.1 0.0
08:40 6.8 93.0 997.2 6.4 W 24.1 0.0
08:45 6.8 93.0 997.2 9.7 WSW 24.1 0.0
08:50 6.8 93.0 997.4 0.0 SW 25.7 0.0
08:55 6.8 93.0 997.4 4.8 WSW 25.7 0.0
09:00 6.8 93.0 997.4 0.0 SW 25.7 0.0
09:05 6.8 93.0 997.5 16.1 WSW 25.7 0.0
09:10 6.8 93.0 997.5 9.7 W 25.7 0.0
09:15 6.8 93.0 997.6 1.6 SW 25.7 0.0
09:20 6.9 93.0 997.6 3.2 W 25.7 0.0
09:25 6.9 93.0 997.7 8.0 WSW 25.7 0.0
09:30 6.9 93.0 997.8 12.9 NW 25.7 0.0
09:35 6.8 93.0 997.9 16.1 W 25.7 0.0
09:40 6.7 93.0 997.7 3.2 WSW 25.7 0.0
09:45 6.7 93.0 997.7 12.9 WSW 25.7 0.0
Màxima 7.1 93.0 997.9 16.1 W 25.7 0.0
Mínima 6.1 93.0 994.6
Total 0.0